Weather History for Ft Lauderdale, FL

Change the Weather History Date:

Thursday, May 24, 2012

  Actual Average Record
Temperature  
Mean Temperature 79 °F 81 °F  
Max Temperature 83 °F 87 °F 94 °F (1951)
Min Temperature 74 °F 76 °F 63 °F (1949)
Degree Days  
Heating Degree Days 0 0  
Month to date heating degree days 0 0  
Since 1 July heating degree days 65 112  
Cooling Degree Days 14 16  
Month to date cooling degree days 334 352  
Year to date cooling degree days 1394 1299  
Growing Degree Days 28 (Base 50)    
Moisture  
Dew Point 72 °F    
Average Humidity 82    
Maximum Humidity 94    
Minimum Humidity 69    
Precipitation  
Precipitation 0.06 in 0.20 in 4.10 in (1958)
Month to date precipitation 6.87 3.09  
Year to date precipitation 15.38 15.93  
Snow  
Snow 0.00 in - - ()
Month to date snowfall 0.0  
Since 1 July snowfall 0.0  
Snow Depth 0.00 in    
Sea Level Pressure  
Sea Level Pressure 29.86 in    
Wind  
Wind Speed 9 mph (East)    
Max Wind Speed 31 mph    
Max Gust Speed 38 mph    
Visibility 8 miles    
Events Rain    
T = Trace of Precipitation, MM = Missing Value Source: NWS Daily Summary

Daily Weather History Graph

Daily Weather History Graph

Search for Another Location

Airport:

Trip Planner

Search our weather history database for the weather conditions in past years. The results will help you decide how hot, cold, wet, or windy it might be!

Date:

Astronomy

May. 24, 2012 Rise Set
Actual Time 6:30 AM EDT 8:04 PM EDT
Civil Twilight 6:04 AM EDT 8:30 PM EDT
Nautical Twilight 5:34 AM EDT 9:00 PM EDT
Astronomical Twilight 5:02 AM EDT 9:32 PM EDT
Moon 9:26 AM EDT (5/24) 11:09 PM EDT (5/24)
Length of Visible Light 14h 25m
Length of Day
13h 34m
Waxing Crescent, 12% of the Moon is Illuminated
May 24
Waxing Crescent
May 28
First Quarter
Jun 4
Full
Jun 11
Last Quarter
Jun 19
New

Hourly Weather History & Observations

Time (EDT) Temp. Heat Index Dew Point Humidity Pressure Visibility Wind Dir Wind Speed Gust Speed Precip Events Conditions
12:53 AM 75.0 °F - 69.1 °F 82% 29.89 in 10.0 mi Calm Calm - N/A   Partly Cloudy
1:53 AM 75.9 °F - 69.1 °F 79% 29.88 in 10.0 mi ESE 4.6 mph - N/A   Partly Cloudy
2:53 AM 75.9 °F - 69.1 °F 79% 29.86 in 10.0 mi ESE 5.8 mph - N/A   Partly Cloudy
3:53 AM 77.0 °F - 69.1 °F 76% 29.86 in 10.0 mi ESE 5.8 mph - N/A   Partly Cloudy
4:53 AM 77.0 °F - 71.1 °F 82% 29.86 in 10.0 mi East 8.1 mph - N/A   Scattered Clouds
5:53 AM 78.1 °F - 72.0 °F 81% 29.85 in 10.0 mi ESE 8.1 mph - N/A   Mostly Cloudy
6:53 AM 78.1 °F - 73.0 °F 84% 29.85 in 10.0 mi ESE 9.2 mph - 0.00 in   Mostly Cloudy
7:09 AM 78.8 °F - 73.4 °F 83% 29.85 in 10.0 mi ESE 12.7 mph 19.6 mph N/A   Mostly Cloudy
7:53 AM 75.0 °F - 73.0 °F 94% 29.87 in 10.0 mi ESE 10.4 mph - 0.00 in Rain Light Rain
7:58 AM 75.2 °F - 73.4 °F 94% 29.87 in 6.0 mi ESE 12.7 mph - 0.00 in Rain Light Rain
8:12 AM 75.2 °F - 73.4 °F 94% 29.87 in 2.5 mi ESE 9.2 mph - 0.00 in Rain Light Rain
8:20 AM 75.2 °F - 73.4 °F 94% 29.87 in 5.0 mi East 8.1 mph - 0.00 in Rain Light Rain
8:22 AM 75.2 °F - 73.4 °F 94% 29.86 in 7.0 mi East 8.1 mph - 0.00 in Rain Light Rain
8:53 AM 75.9 °F - 73.0 °F 91% 29.87 in 10.0 mi East 6.9 mph - 0.00 in   Mostly Cloudy
9:38 AM 75.2 °F - 73.4 °F 94% 29.87 in 2.5 mi East 10.4 mph - N/A Rain Heavy Rain
9:45 AM 75.2 °F - 73.4 °F 94% 29.87 in 4.0 mi ENE 9.2 mph - N/A Rain Light Rain
9:51 AM 75.2 °F - 73.4 °F 94% 29.87 in 4.0 mi East 10.4 mph - N/A Rain Light Rain
9:53 AM 75.9 °F - 73.9 °F 94% 29.87 in 4.0 mi East 10.4 mph - N/A Rain Light Rain
10:49 AM 75.2 °F - 73.4 °F 94% 29.87 in 3.0 mi East 15.0 mph - N/A Rain Rain
10:53 AM 75.0 °F - 73.9 °F 96% 29.87 in 4.0 mi ESE 13.8 mph 21.9 mph N/A Rain Rain
11:07 AM 75.2 °F - 73.4 °F 94% 29.87 in 4.0 mi SE 11.5 mph - 0.02 in Rain Rain
11:22 AM 75.2 °F - 73.4 °F 94% 29.87 in 5.0 mi SE 6.9 mph - 0.02 in Rain Rain
11:42 AM 75.2 °F - 73.4 °F 94% 29.88 in 6.0 mi SSE 12.7 mph 21.9 mph 0.02 in Rain Light Rain
11:53 AM 75.0 °F - 73.9 °F 96% 29.87 in 6.0 mi SSE 13.8 mph 23.0 mph 0.02 in Rain Light Rain
12:53 PM 75.0 °F - 73.9 °F 96% 29.87 in 6.0 mi SE 16.1 mph 25.3 mph 0.00 in Rain Light Rain
1:07 PM 75.2 °F - 73.4 °F 94% 29.84 in 7.0 mi ESE 23.0 mph 29.9 mph 0.00 in Rain Light Rain
1:53 PM 75.9 °F - 71.1 °F 85% 29.86 in 10.0 mi WSW 6.9 mph - 0.00 in Rain Light Rain
2:19 PM 77.0 °F - 71.6 °F 83% 29.86 in 10.0 mi Calm Calm - 0.00 in Rain Light Rain
2:53 PM 78.1 °F - 71.1 °F 79% 29.84 in 10.0 mi ESE 4.6 mph - 0.00 in   Scattered Clouds
3:53 PM 82.9 °F 87.5 °F 71.1 °F 67% 29.83 in 10.0 mi NNE 12.7 mph - N/A   Mostly Cloudy
4:31 PM 80.6 °F 83.9 °F 69.8 °F 70% 29.82 in 10.0 mi NE 9.2 mph - N/A   Partly Cloudy
4:53 PM 82.9 °F 87.5 °F 71.1 °F 67% 29.82 in 10.0 mi North 6.9 mph - N/A   Partly Cloudy
5:53 PM 82.0 °F 86.3 °F 71.1 °F 69% 29.82 in 10.0 mi NNE 9.2 mph - N/A   Partly Cloudy
6:36 PM 77.0 °F - 73.4 °F 89% 29.83 in 4.0 mi NE 15.0 mph - 0.00 in Rain Light Rain
6:53 PM 77.0 °F - 73.0 °F 88% 29.83 in 10.0 mi NE 10.4 mph - 0.00 in   Overcast
7:36 PM 78.8 °F - 71.6 °F 78% 29.84 in 10.0 mi NNE 10.4 mph - N/A   Mostly Cloudy
7:53 PM 78.1 °F - 72.0 °F 81% 29.84 in 10.0 mi NE 11.5 mph - N/A   Mostly Cloudy
8:53 PM 77.0 °F - 70.0 °F 79% 29.84 in 10.0 mi NNE 8.1 mph - N/A   Partly Cloudy
9:53 PM 77.0 °F - 70.0 °F 79% 29.86 in 10.0 mi NE 9.2 mph - N/A   Partly Cloudy
10:53 PM 75.9 °F - 70.0 °F 82% 29.88 in 10.0 mi North 5.8 mph - N/A   Partly Cloudy
11:53 PM 75.0 °F - 70.0 °F 84% 29.90 in 10.0 mi NW 5.8 mph - N/A   Partly Cloudy